Location: Southlake
(32.9412°N, 97.1342°W)
Time: 11:13:26
(UTC+00:00)

CZ-4B R/B - Pass Details

Date: 03 December 2021
Orbit: 482 x 652 km, 97.9° (Epoch: 23 January)

Event Time Altitude Azimuth Distance (km) Brightness Sun altitude
Rises 12:01:22 0° 18° (NNE) 2,548 6.2 -15.2°
Reaches altitude 10° 12:03:29 10° 24° (NNE) 1,665 5.4 -14.8°
Maximum altitude 12:06:56 48° 100° (E) 640 3.6 -14.1°
Drops below altitude 10° 12:10:25 10° 176° (S) 1,682 5.6 -13.4°
Sets 12:12:33 0° 182° (S) 2,578 6.5 -13.0°
